Terminal Aerodrome Forecast
Issued by NWS Bismarck, ND

Home | Current Version | Previous Version | Graphics & Text | Print | Product List | Glossary On
Versions: 1 2 3 4 5 6 7 8 9 10 11 12 13 14
000
FTUS43 KBIS 212300
TAFBIS
TAF
KBIS 212331Z 2200/2224 17016G21KT P6SM SKC
     FM220100 15009KT P6SM SCT120
     FM221200 26007KT P6SM BKN090
     FM221900 28011G16KT P6SM SKC=

USA.gov is the U.S. government's official web portal to all federal, state and local government web resources and services.